TimeCST,TemperatureF,Dew PointF,Humidity,Sea Level PressureIn,VisibilityMPH,Wind Direction,Wind SpeedMPH,Gust SpeedMPH,PrecipitationIn,Events,Conditions,WindDirDegrees,DateUTC
6:00 AM,73,71,89,29.81,12,WSW,3.5,,,,Overcast,240,2013-11-16 12:00:00
6:00 AM,73.4,69.8,88,29.79,6.2,WSW,3.5,-,N/A,,Mostly Cloudy,240,2013-11-16 12:00:00
7:00 AM,75.2,71.6,89,29.83,6.2,SSW,3.5,-,N/A,,Mostly Cloudy,200,2013-11-16 13:00:00
8:00 AM,78.8,73.4,83,29.85,6.2,NE,4.6,-,N/A,,Mostly Cloudy,40,2013-11-16 14:00:00
9:00 AM,82,72,64,29.87,12,East,8.1,,,,Overcast,100,2013-11-16 15:00:00
9:00 AM,82.4,71.6,70,29.85,6.2,East,8.1,-,N/A,,Mostly Cloudy,100,2013-11-16 15:00:00
10:00 AM,84.2,71.6,66,29.84,6.2,ENE,15.0,-,N/A,,Mostly Cloudy,70,2013-11-16 16:00:00
11:00 AM,87.8,69.8,55,29.82,6.2,East,17.3,-,N/A,,Mostly Cloudy,90,2013-11-16 17:00:00
12:00 PM,88,71,49,29.81,12,East,15.0,,,,Overcast,100,2013-11-16 18:00:00
12:00 PM,87.8,71.6,58,29.79,6.2,East,15.0,-,N/A,,Mostly Cloudy,100,2013-11-16 18:00:00
1:00 PM,86.0,71.6,62,29.77,6.2,ENE,17.3,-,N/A,,Mostly Cloudy,70,2013-11-16 19:00:00
2:00 PM,86.0,69.8,58,29.76,6.2,East,16.1,-,N/A,,Mostly Cloudy,80,2013-11-16 20:00:00
3:00 PM,88,70,46,29.76,12,ENE,15.0,,,,Overcast,70,2013-11-16 21:00:00
3:00 PM,87.8,69.8,55,29.74,6.2,ENE,15.0,-,N/A,,Mostly Cloudy,70,2013-11-16 21:00:00
4:00 PM,87.8,69.8,55,29.74,6.2,ENE,18.4,-,N/A,,Mostly Cloudy,70,2013-11-16 22:00:00
5:00 PM,84.2,69.8,62,29.75,6.2,ENE,13.8,-,N/A,,Mostly Cloudy,70,2013-11-16 23:00:00
6:00 PM,83,70,57,29.77,12,East,6.9,,,,Scattered Clouds,90,2013-11-17 00:00:00
6:00 PM,82.4,69.8,66,29.76,6.2,East,6.9,-,N/A,,Mostly Cloudy,90,2013-11-17 00:00:00
7:00 PM,80.6,71.6,74,29.78,6.2,SE,3.5,-,N/A,,Mostly Cloudy,130,2013-11-17 01:00:00
8:00 PM,80.6,69.8,70,29.79,6.2,SE,9.2,-,N/A,,Mostly Cloudy,130,2013-11-17 02:00:00